Theta_e
284 284 286 286 285 286 284 285 281 283 283 286 287 285 285 286 288 288 287 287 287 287 287 286 285 285 285 286 286 286 285 284 283 283 283 282 282 281 281 281 281 281 281 281
283 284 284 283 285 285 285 285 285 285 285 289 288 286 285 285 287 285 285 286 285 286 285 285 284 284 285 285 284 285 283 282 283 283 282 281 281 280 280 280 280 280 280 280
280 283 282 280 282 283 284 286 286 283 287 289 286 284 284 286 286 285 285 285 285 285 284 284 284 285 283 283 283 282 281 280 280 280 279 279 279 279 279 279 280 279 279 280
281 281 276 283 287 288 286 287 288 287 287 287 285 286 286 288 286 285 285 285 284 283 283 284 284 283 282 281 280 280 279 279 279 279 278 279 279 279 279 280 279 280 279 279
279 278 281 283 286 287 286 286 289 288 288 286 285 285 285 289 288 286 285 285 284 283 283 284 281 281 280 280 280 279 278 278 278 278 278 278 278 278 279 279 279 279 280 279
278 276 276 283 289 291 291 283 288 289 288 286 285 283 284 289 288 286 286 285 283 283 283 281 281 282 281 280 280 278 279 279 279 279 278 277 278 278 279 280 279 279 279 279
279 279 281 286 290 291 281 284 289 289 288 286 285 286 288 288 286 286 285 284 283 282 281 281 282 283 281 281 279 280 280 280 279 279 278 278 278 278 278 278 278 278 278 279
281 278 277 290 289 285 289 288 290 289 287 286 286 287 289 286 285 284 283 282 282 282 282 282 283 282 281 280 281 281 281 280 280 279 278 278 277 277 277 277 277 277 277 277
285 284 288 291 289 289 290 289 288 288 287 288 287 286 286 284 284 283 282 282 283 282 281 281 282 282 280 279 280 279 279 278 278 279 279 278 277 276 276 276 276 275 275 275
286 288 288 289 288 289 289 288 288 288 289 288 286 288 285 284 283 282 282 281 281 281 280 278 279 279 279 278 279 278 277 277 278 277 277 277 277 276 276 275 275 274 274 274
286 288 287 289 289 289 287 288 288 289 289 289 289 286 285 283 283 282 281 281 280 279 277 275 277 277 278 279 279 278 277 277 277 277 276 276 276 275 275 275 274 273 273 274
288 291 291 290 290 289 287 287 288 288 289 289 288 286 286 284 283 281 280 280 279 277 275 274 276 276 277 278 278 277 276 276 275 275 275 275 274 274 274 274 274 274 274 273
290 289 288 287 288 289 287 287 288 289 289 287 286 285 284 282 281 280 279 278 275 274 273 275 276 276 277 278 277 276 275 275 275 274 273 273 273 273 272 274 273 273 273 272
289 288 286 287 286 287 288 288 288 288 286 285 284 284 282 281 279 277 276 275 274 273 273 275 276 276 277 278 277 276 275 274 274 274 273 273 272 272 272 271 270 271 272 271
287 286 287 287 286 286 287 286 284 283 282 281 282 281 280 276 275 273 272 272 273 272 273 275 276 276 277 277 275 275 275 274 274 273 273 272 272 271 271 270 270 270 270 270
285 285 285 284 285 285 285 285 283 282 281 280 279 278 277 276 273 271 271 273 276 275 275 274 276 277 277 276 275 274 273 273 273 273 272 271 271 270 270 270 269 269 269 268
280 281 283 283 284 284 284 285 284 282 280 279 276 276 273 272 272 272 272 274 275 276 276 276 275 276 276 276 275 274 274 272 271 272 270 271 270 269 269 269 268 268 268 268
284 284 285 286 285 284 283 283 283 280 277 277 276 273 272 273 274 272 273 275 274 274 276 276 276 276 275 275 274 273 273 272 271 270 270 269 269 269 269 268 268 267 268 268
282 281 284 285 285 283 281 280 279 276 275 274 273 272 273 272 273 272 274 273 273 274 275 277 276 276 274 274 273 273 272 271 270 270 269 268 268 268 268 268 267 267 267 267
279 279 280 279 279 279 276 277 275 273 273 273 271 270 271 270 272 273 274 275 276 276 277 276 276 275 274 273 273 273 272 271 270 269 268 268 268 267 267 265 266 266 267 267
277 277 276 276 273 273 274 273 272 271 271 272 273 271 271 271 273 274 274 274 275 277 277 276 275 274 274 272 272 272 271 270 269 268 268 267 267 267 266 266 266 266 266 265
277 276 274 273 274 271 272 275 274 271 271 270 270 269 270 271 272 274 274 275 276 276 276 276 275 273 273 271 273 272 271 270 269 269 268 268 267 266 266 265 264 265 264 265
280 278 277 275 276 275 276 275 272 273 271 270 270 271 274 275 275 274 274 276 277 275 276 275 272 270 269 273 273 271 270 269 268 268 267 267 266 266 265 264 264 264 264 263
280 280 279 279 278 277 276 275 275 274 273 272 272 272 275 275 276 277 276 275 275 275 275 273 271 268 269 271 271 270 269 269 268 268 268 262 267 266 265 264 264 264 263 262
281 280 279 278 278 278 278 276 276 275 274 275 275 274 277 278 277 277 276 276 274 274 274 269 268 266 271 271 270 269 269 269 269 269 268 268 267 266 266 265 263 263 262 262
281 280 280 280 280 279 278 277 277 277 276 275 276 277 278 278 277 276 275 274 275 273 274 271 271 270 271 270 270 269 269 269 268 268 267 268 267 267 265 264 264 263 262 262
281 281 280 280 280 280 279 278 278 277 276 277 276 276 277 277 276 275 273 275 275 274 273 272 270 269 271 271 270 270 269 269 266 269 268 268 267 267 265 264 263 263 262 261
Wind_Speed
3 3 3 4 9 10 11 7 8 1 3 3 1 4 5 5 6 9 11 12 12 12 12 12 13 13 13 13 14 14 14 14 14 14 13 13 14 14 14 15 15 16 17 17
2 3 2 8 15 11 11 11 14 10 11 5 4 2 1 3 5 8 9 11 12 12 12 12 12 11 12 13 13 12 12 13 13 13 13 13 13 14 14 15 15 16 15 16
3 4 6 8 5 6 4 5 6 7 2 6 6 1 2 3 5 7 9 9 9 10 10 11 11 11 12 11 11 12 13 14 14 13 13 13 13 14 14 14 14 15 16 16
2 4 2 2 0 5 5 3 5 4 6 3 1 2 4 4 4 6 7 8 7 8 9 10 10 10 10 10 11 12 13 13 13 13 13 13 13 13 13 13 15 14 15 15
2 2 7 2 4 5 5 4 10 6 6 2 3 5 4 4 7 7 6 7 6 6 7 9 10 9 9 10 11 12 13 12 13 14 14 14 14 14 13 12 12 12 13 16
3 2 5 1 4 4 3 4 9 8 8 6 5 4 4 4 8 8 7 6 5 5 7 8 8 8 9 10 11 12 12 11 12 12 13 13 13 13 12 12 12 10 12 14
3 4 9 4 5 3 2 1 9 9 5 6 3 3 6 9 8 9 7 6 5 6 7 7 7 7 9 9 11 9 10 10 11 13 13 13 13 12 12 12 12 13 14 13
4 5 9 7 5 6 1 2 7 6 5 5 3 4 9 10 8 8 6 4 5 5 6 6 6 6 8 8 7 8 9 10 10 10 10 10 13 12 13 13 13 14 14 13
10 6 1 4 1 2 3 5 5 7 7 7 6 6 10 9 8 7 6 5 4 5 6 7 8 8 7 7 7 8 9 8 10 10 10 11 11 12 10 13 12 13 12 12
2 3 5 6 3 4 3 5 8 8 9 6 5 7 10 9 9 8 5 4 4 6 7 7 7 7 5 4 4 6 8 9 9 10 10 10 8 9 10 11 12 11 12 13
5 5 3 9 8 8 8 10 10 8 6 7 8 11 10 9 8 8 6 5 5 6 6 5 5 7 6 6 7 8 8 9 9 8 9 9 8 9 9 11 13 12 12 11
6 5 2 1 8 13 12 10 10 9 8 8 10 9 9 8 7 7 7 6 6 6 6 5 6 7 7 7 9 9 8 8 8 7 7 7 7 7 12 13 16 19 19 14
3 4 3 3 7 9 9 10 9 7 7 9 8 9 10 9 7 9 8 7 6 5 4 5 6 7 6 7 9 10 9 8 6 7 7 8 8 8 9 10 12 17 21 21
5 8 3 6 5 9 11 10 9 8 9 8 9 10 9 10 10 8 8 7 6 5 5 5 6 7 5 6 7 8 8 10 6 6 7 7 7 8 7 9 11 11 16 18
6 3 2 9 11 10 12 12 10 9 9 8 8 9 10 10 8 7 6 5 6 5 4 5 6 6 5 6 8 8 7 6 6 6 6 7 7 7 8 8 9 9 10 12
6 7 9 10 12 12 12 11 9 9 8 8 9 8 9 9 8 7 6 5 6 6 4 4 5 5 5 5 7 7 7 9 8 6 6 7 7 8 8 9 9 9 10 12
7 6 8 10 11 12 11 9 8 9 9 9 10 10 10 9 8 7 5 5 7 6 5 5 4 4 5 5 6 5 5 6 7 6 6 7 7 8 8 8 8 8 9 11
2 3 7 9 13 12 9 9 9 10 9 11 11 10 9 8 9 7 7 7 7 6 5 5 4 5 5 6 6 5 5 6 6 6 6 7 6 6 7 7 8 9 9 10
3 8 6 10 11 10 9 8 8 8 9 10 11 10 8 7 9 8 7 6 6 6 4 4 6 6 6 6 5 5 6 6 6 5 6 5 6 7 7 8 8 9 9 10
6 5 8 7 8 8 8 7 9 8 8 9 8 8 8 6 7 8 7 6 4 4 6 5 5 5 6 6 5 5 6 6 5 5 5 5 6 7 7 8 8 8 9 9
7 6 7 8 6 6 7 8 9 10 8 9 10 9 8 7 6 7 7 5 5 5 6 6 5 4 4 4 4 6 6 5 5 5 4 5 5 6 6 7 7 7 8 8
6 6 6 7 8 7 6 8 9 9 9 7 6 8 8 8 6 4 1 4 4 6 4 4 4 5 5 5 4 6 5 5 4 4 4 4 5 5 6 6 7 7 7 8
8 9 9 8 9 10 9 8 8 10 9 8 8 10 10 8 7 7 5 5 5 5 4 4 7 7 6 4 4 5 5 4 4 4 3 3 4 4 5 6 6 6 7 8
9 10 9 9 10 10 10 8 9 9 7 7 7 7 9 8 5 3 3 7 7 7 5 6 6 8 5 4 4 5 4 4 3 2 2 2 3 3 4 4 5 5 6 7
10 10 11 11 10 8 9 10 9 8 9 9 10 10 8 6 4 6 5 6 8 7 6 7 8 8 4 4 4 4 4 3 3 2 1 2 2 3 3 4 4 5 6 6
10 8 8 11 8 8 7 9 7 8 8 8 7 7 7 5 4 5 5 6 7 7 6 6 5 5 4 4 4 4 4 4 3 3 1 1 1 2 2 3 4 5 5 6
8 8 7 7 7 8 8 9 8 9 9 9 8 7 8 6 5 5 6 7 7 6 6 5 5 5 5 5 4 4 3 3 3 3 2 2 1 0 1 2 3 4 4 5
Wind_Direction
248 233 207 238 239 210 219 231 239 43 213 168 78 0 13 12 6 27 28 28 23 22 23 25 19 19 17 18 13 12 16 16 14 12 19 16 16 15 11 14 10 11 7 3
250 94 174 255 256 246 241 246 252 258 275 144 128 96 51 31 23 33 23 27 21 23 20 20 21 17 12 13 17 17 16 15 13 12 16 17 16 16 16 11 12 10 7 8
257 344 299 264 248 193 191 215 223 216 196 164 181 160 106 45 36 22 33 35 22 22 18 16 21 16 18 11 15 21 22 19 15 14 16 18 16 12 9 11 8 15 13 12
292 338 257 65 249 227 210 213 171 126 172 181 94 88 135 76 43 40 38 41 35 21 21 24 25 24 26 24 28 31 28 21 19 17 17 14 14 14 11 6 8 9 13 11
284 246 309 197 178 168 196 239 192 182 173 161 142 150 169 102 87 74 59 63 43 33 27 30 37 43 42 33 33 34 30 21 15 17 16 14 13 8 8 9 10 12 16 14
135 236 256 107 178 167 148 270 180 184 182 188 177 246 133 128 109 94 76 69 53 34 46 50 47 39 42 35 34 31 29 21 19 17 20 13 9 8 4 10 13 13 20 20
159 253 278 202 162 163 237 59 165 183 165 178 233 47 111 122 101 94 81 60 66 61 64 62 48 33 38 36 35 29 28 23 22 24 23 15 11 10 10 9 13 15 17 17
168 214 270 153 123 203 85 80 147 153 154 173 141 142 133 126 120 102 83 86 87 80 63 48 26 18 24 29 18 22 23 17 19 20 21 18 14 12 14 13 14 15 16 15
202 218 93 200 27 95 143 148 152 151 150 149 165 186 150 138 129 118 111 114 100 84 71 47 39 36 33 21 37 34 34 21 22 21 17 18 15 15 13 15 15 13 11 12
184 193 217 217 183 160 157 128 132 126 141 147 188 159 143 136 134 125 122 116 109 89 70 54 42 43 25 15 38 44 33 25 23 21 16 19 21 17 18 15 14 13 10 8
255 250 279 244 208 164 128 128 127 134 138 159 154 148 145 141 135 121 127 128 99 89 80 63 53 49 23 30 38 46 39 30 26 24 16 20 30 22 22 28 22 12 12 5
226 202 190 186 191 160 154 149 145 145 141 153 149 145 143 133 129 138 141 126 107 98 95 75 64 52 27 37 50 45 42 31 25 25 20 21 20 25 41 27 27 25 23 18
227 136 104 50 133 141 131 139 146 149 154 141 131 133 132 135 132 138 125 118 111 107 100 82 67 57 35 48 57 56 49 37 31 25 27 22 18 17 9 10 22 24 20 19
138 127 97 174 157 141 131 132 124 110 106 112 117 123 130 133 136 133 118 119 123 116 93 86 75 62 47 53 61 64 65 51 40 33 28 24 22 19 14 10 4 3 9 9
155 57 122 118 124 123 130 127 134 131 127 123 129 133 137 137 141 129 121 131 121 106 94 83 75 64 54 63 68 56 57 51 46 40 35 27 24 25 22 17 11 4 357 4
125 107 123 126 137 143 147 155 154 149 145 140 137 136 132 130 130 122 140 160 139 111 96 83 69 62 62 68 77 76 68 56 49 42 35 30 29 26 22 17 12 11 10 6
120 139 140 150 159 166 172 170 168 158 151 146 137 133 127 128 121 124 131 122 110 103 96 90 76 61 72 68 72 73 75 67 51 48 38 32 30 28 22 17 13 10 8 9
97 128 160 171 165 163 160 155 147 144 147 143 137 133 137 145 141 139 132 117 104 88 85 87 90 80 69 74 78 81 78 69 57 48 42 38 28 29 24 19 13 8 2 4
107 131 131 153 151 144 143 137 142 132 135 139 140 149 147 135 140 142 137 122 122 118 110 112 98 92 87 82 86 87 83 76 66 56 47 36 39 31 28 19 12 10 4 3
104 93 105 104 104 125 125 123 132 131 138 134 123 129 140 143 147 146 144 136 134 129 137 124 112 100 97 95 95 92 85 79 73 66 41 43 34 32 24 21 11 9 6 5
113 118 117 118 112 101 123 140 138 146 144 144 148 150 145 144 147 143 146 142 133 140 127 127 122 116 109 118 112 96 92 88 78 66 49 42 36 31 27 17 12 8 3 3
140 128 123 124 129 127 140 149 142 135 142 133 118 131 137 152 153 158 101 154 151 148 142 133 131 124 123 141 112 104 100 94 83 73 58 44 36 30 25 15 8 3 0 358
147 144 146 142 151 150 152 148 143 148 149 148 152 164 170 167 170 165 170 165 157 157 149 141 132 130 133 130 116 111 109 104 94 78 64 48 39 33 20 11 2 359 359 357
152 157 156 153 143 149 158 157 161 160 152 157 172 169 166 166 168 170 113 148 150 155 152 143 142 141 149 130 124 120 123 120 112 99 89 69 44 32 21 6 1 357 354 355
171 162 157 160 165 169 159 159 157 157 161 180 179 184 189 185 176 173 165 163 157 157 149 146 147 150 147 143 141 137 140 143 141 154 114 63 43 25 10 4 354 354 353 355
184 179 175 176 171 165 161 168 172 168 170 181 182 182 186 182 164 158 170 164 165 160 158 159 166 168 159 159 157 158 159 154 180 201 201 167 65 28 6 353 350 353 353 348
194 185 177 177 178 171 171 181 177 181 186 190 186 182 185 184 181 174 166 171 172 172 170 170 171 180 172 173 177 175 182 180 191 201 219 225 219 98 359 343 343 341 339 344